CW1020 Weather Reports


time (UTC)temp
F
wind
direction
speed
knots
gust
knots
rain 1hr
in
rain 24hr
in
rain mn
in
humidity
%
barometer
mb
20260503200006 66 319 8.7 14.8 0.00 0.00 0.00 49 1012.8
20260503195006 65 317 7.0 13.9 0.00 0.00 0.00 50 1012.7
20260503194505 65 312 4.3 12.2 0.00 0.00 0.00 50 1012.9
20260503194006 64 322 3.5 13.0 0.00 0.00 0.00 51 1013.0
20260503193506 64 324 3.5 7.0 0.00 0.00 0.00 50 1013.0
20260503193007 64 289 3.5 7.8 0.00 0.00 0.00 51 1013.1
20260503192506 65 329 4.3 7.0 0.00 0.00 0.00 50 1013.1
20260503192006 65 305 4.3 7.8 0.00 0.00 0.00 50 1013.1
20260503191505 65 286 6.1 8.7 0.00 0.00 0.00 51 1013.2
20260503191006 64 318 7.0 11.3 0.00 0.00 0.00 53 1013.1
20260503190506 64 319 7.8 12.2 0.00 0.00 0.00 53 1013.3
20260503190007 65 313 7.0 10.4 0.00 0.00 0.00 51 1013.2
20260503185506 64 315 7.0 11.3 0.00 0.00 0.00 50 1013.2
20260503184007 63 319 8.7 11.3 0.00 0.00 0.00 56 1013.3
20260503183505 62 318 7.8 13.9 0.00 0.00 0.00 56 1013.3
20260503183006 62 321 9.6 11.3 0.00 0.00 0.00 58 1013.3
20260503182506 61 312 9.6 12.2 0.00 0.00 0.00 59 1013.4
20260503182006 61 317 10.4 13.0 0.00 0.00 0.00 61 1013.5
20260503181506 60 316 10.4 13.0 0.00 0.00 0.00 61 1013.6
20260503181006 60 318 10.4 15.6 0.00 0.00 0.00 64 1013.5
20260503180505 58 314 10.4 13.9 0.00 0.00 0.00 65 1013.6
20260503180006 59 322 8.7 15.6 0.00 0.00 0.00 65 1013.7
20260503175006 58 320 11.3 15.6 0.00 0.00 0.00 64 1013.5
20260503174506 59 320 10.4 17.4 0.00 0.00 0.00 64 1013.4
20260503174006 59 320 11.3 15.6 0.00 0.00 0.00 64 1013.5
20260503173506 59 314 10.4 16.5 0.00 0.00 0.00 64 1013.3
20260503173502 59 313 11.3 11.3 0.00 0.00 0.00 64 1013.3
20260503173006 59 318 10.4 18.2 0.00 0.00 0.00 63 1013.3
20260503171006 64 329 6.1 11.3 0.00 0.00 0.00 49 1013.2
20260503170507 69 323 7.0 11.3 0.00 0.00 0.00 38 1013.2
20260503151002 65 85 6.1 13.0 0.00 0.00 0.00 27 1012.9
20260503131002 47 152 3.5 6.1 0.00 0.00 0.00 52 1012.6
20260503130503 47 151 3.5 6.1 0.00 0.00 0.00 52 1012.7
20260503110503 48 0 0.0 0.0 0.00 0.00 0.00 50 1013.3
20260503090503 55 161 0.9 4.3 0.00 0.00 0.00 38 1014.0
20260503081503 58 168 1.7 4.3 0.00 0.00 0.00 34 1014.1
20260503081003 58 100 1.7 2.6 0.00 0.00 0.00 34 1014.0
20260503080502 59 94 2.6 2.6 0.00 0.00 0.00 33 1014.3
20260503072503 65 201 2.6 5.2 0.00 0.00 0.00 25 1014.3
20260503072002 64 243 3.5 6.1 0.00 0.00 0.00 25 1014.3
20260503071504 64 238 3.5 4.3 0.00 0.00 0.00 26 1014.1
20260503071003 64 249 1.7 6.1 0.00 0.00 0.00 26 1014.0
20260503055004 66 278 5.2 10.4 0.00 0.00 0.00 25 1014.0
20260503054502 66 310 3.5 8.7 0.00 0.00 0.00 25 1014.0
20260503054003 66 311 2.6 7.0 0.00 0.00 0.00 26 1014.2
20260503053003 65 286 4.3 7.8 0.00 0.00 0.00 27 1014.2
20260503052503 65 304 5.2 5.2 0.00 0.00 0.00 27 1014.2
20260503052003 66 272 5.2 8.7 0.00 0.00 0.00 27 1014.2
20260503051003 66 250 4.3 7.0 0.00 0.00 0.00 26 1014.2
20260503050504 65 234 5.2 7.8 0.00 0.00 0.00 26 1014.2
20260503050004 64 210 6.1 8.7 0.00 0.00 0.00 27 1014.2
20260503045503 64 210 3.5 11.3 0.00 0.00 0.00 28 1014.2
20260503045003 64 216 0.0 10.4 0.00 0.00 0.00 28 1014.3
20260503044503 64 31 0.0 1.7 0.00 0.00 0.00 28 1014.2
20260503044003 64 0 0.9 0.0 0.00 0.00 0.00 28 1014.3
20260503043003 66 124 1.7 2.6 0.00 0.00 0.00 27 1014.0
20260503042003 66 160 1.7 3.5 0.00 0.00 0.00 25 1013.8
20260503041503 66 195 1.7 5.2 0.00 0.00 0.00 26 1013.7
20260503040503 66 186 1.7 5.2 0.00 0.00 0.00 26 1013.7
20260503040005 66 127 2.6 2.6 0.00 0.00 0.00 27 1013.6
20260503035503 66 153 3.5 7.0 0.00 0.00 0.00 26 1013.5
20260503035003 66 181 3.5 7.8 0.00 0.00 0.00 26 1013.5
20260503034504 66 154 3.5 7.0 0.00 0.00 0.00 26 1013.3
20260503034003 66 185 3.5 5.2 0.00 0.00 0.00 27 1013.2
20260503033004 67 172 5.2 10.4 0.00 0.00 0.00 26 1013.1
20260503032503 68 175 6.1 9.6 0.00 0.00 0.00 26 1013.0
20260503032003 68 181 6.1 10.4 0.00 0.00 0.00 26 1013.1
20260503031504 68 174 5.2 13.0 0.00 0.00 0.00 26 1013.1
20260503031004 68 163 5.2 11.3 0.00 0.00 0.00 26 1013.1
20260503030504 69 167 6.1 9.6 0.00 0.00 0.00 26 1013.1
20260503024503 70 177 7.0 8.7 0.00 0.00 0.00 24 1012.9
20260503024003 70 177 7.0 14.8 0.00 0.00 0.00 24 1012.9
20260503023505 70 178 6.1 12.2 0.00 0.00 0.00 23 1012.8
20260503023004 71 182 6.1 9.6 0.00 0.00 0.00 23 1012.9
20260503022503 71 167 7.0 14.8 0.00 0.00 0.00 23 1012.8
20260503022004 72 179 5.2 11.3 0.00 0.00 0.00 23 1012.9
20260503021504 72 186 4.3 12.2 0.00 0.00 0.00 23 1013.0
20260503021003 72 186 5.2 7.0 0.00 0.00 0.00 23 1013.1
20260503020504 73 170 7.0 7.0 0.00 0.00 0.00 22 1013.0
20260503020004 73 153 7.0 13.0 0.00 0.00 0.00 22 1013.1
20260503015503 73 159 5.2 11.3 0.00 0.00 0.00 22 1013.3
20260503015003 74 173 5.2 12.2 0.00 0.00 0.00 22 1013.2
20260503014003 74 160 6.1 10.4 0.00 0.00 0.00 22 1013.2
20260503013004 74 150 5.2 14.8 0.00 0.00 0.00 23 1013.3
20260503012003 74 193 6.1 10.4 0.00 0.00 0.00 24 1013.3
20260503011503 74 168 6.1 9.6 0.00 0.00 0.00 24 1013.2
20260503011004 75 189 5.2 13.0 0.00 0.00 0.00 25 1013.3
20260503010504 75 178 5.2 8.7 0.00 0.00 0.00 24 1013.2
20260503005504 75 173 7.0 8.7 0.00 0.00 0.00 24 1013.3
20260503005005 76 189 7.0 11.3 0.00 0.00 0.00 24 1013.3
20260503004003 76 155 7.8 12.2 0.00 0.00 0.00 24 1013.4
20260503002504 76 171 7.0 11.3 0.00 0.00 0.00 23 1013.2
20260503002004 76 147 7.8 13.9 0.00 0.00 0.00 24 1013.2
20260503001504 76 144 8.7 10.4 0.00 0.00 0.00 23 1013.3
20260503001004 76 153 7.0 16.5 0.00 0.00 0.00 24 1013.4
20260503000504 76 125 7.0 12.2 0.00 0.00 0.00 23 1013.3
20260502235003 77 153 8.7 11.3 0.00 0.00 0.00 24 1013.4
20260502234504 77 158 9.6 12.2 0.00 0.00 0.00 24 1013.4
20260502233504 77 148 8.7 14.8 0.00 0.00 0.00 24 1013.3
20260502233003 77 139 7.8 13.9 0.00 0.00 0.00 24 1013.3
20260502232003 77 134 7.0 9.6 0.00 0.00 0.00 23 1013.4
20260502231504 77 154 7.8 10.4 0.00 0.00 0.00 24 1013.5
20260502230504 77 168 4.3 18.2 0.00 0.00 0.00 23 1013.5
20260502230004 84 158 5.2 8.7 0.00 0.00 0.00 19 1013.4
20260502225003 82 182 6.1 20.9 0.00 0.00 0.00 20 1013.5
20260502224505 81 185 3.5 14.8 0.00 0.00 0.00 21 1013.8
20260502224004 80 145 3.5 9.6 0.00 0.00 0.00 20 1013.9
20260502223503 79 225 4.3 6.1 0.00 0.00 0.00 20 1014.1
20260502223003 79 96 5.2 7.8 0.00 0.00 0.00 19 1014.2
20260502222504 79 73 7.0 11.3 0.00 0.00 0.00 18 1014.2
20260502222004 80 96 7.8 12.2 0.00 0.00 0.00 18 1014.4
20260502221504 80 104 6.1 13.0 0.00 0.00 0.00 17 1014.4
20260502221003 81 111 5.2 9.6 0.00 0.00 0.00 18 1014.5
20260502220503 81 126 8.7 6.1 0.00 0.00 0.00 18 1014.6
20260502220003 81 109 8.7 14.8 0.00 0.00 0.00 18 1014.6
20260502215503 80 113 7.0 13.0 0.00 0.00 0.00 18 1014.8
20260502215003 80 99 7.8 13.0 0.00 0.00 0.00 18 1014.9
20260502214504 80 81 9.6 12.2 0.00 0.00 0.00 18 1014.9
20260502213504 80 114 9.6 18.2 0.00 0.00 0.00 18 1015.1
20260502213003 80 87 10.4 12.2 0.00 0.00 0.00 18 1015.1
20260502212505 80 106 7.8 18.2 0.00 0.00 0.00 18 1015.1
20260502212004 80 90 7.8 13.0 0.00 0.00 0.00 18 1015.3
20260502211505 80 96 9.6 13.9 0.00 0.00 0.00 18 1015.4
20260502211003 80 114 9.6 21.7 0.00 0.00 0.00 19 1015.5
20260502210503 79 101 10.4 14.8 0.00 0.00 0.00 18 1015.5
20260502210002 79 106 9.6 20.9 0.00 0.00 0.00 19 1015.7
20260502205503 79 95 8.7 17.4 0.00 0.00 0.00 19 1015.5
20260502205002 79 90 9.6 18.2 0.00 0.00 0.00 19 1015.5
20260502204503 79 101 9.6 23.5 0.00 0.00 0.00 20 1015.5
20260502204002 78 85 9.6 15.6 0.00 0.00 0.00 19 1015.5
20260502203502 79 81 7.8 16.5 0.00 0.00 0.00 19 1015.7
20260502203002 79 98 7.8 13.9 0.00 0.00 0.00 20 1015.7
20260502202503 78 106 10.4 10.4 0.00 0.00 0.00 20 1015.8
20260502202002 79 94 9.6 15.6 0.00 0.00 0.00 20 1015.8
20260502201503 80 74 7.8 14.8 0.00 0.00 0.00 19 1015.9
20260502200502 79 104 7.8 17.4 0.00 0.00 0.00 19 1016.0